Location: Seattle
(47.6064°N, 122.3308°W)
Time: 21:44:10
(UTC-07:00)

YUBILEINY - Visible Passes

Search period start: 28 March 2023 00:00
Search period end: 07 April 2023 00:00
Orbit: 1477 x 1509 km, 82.5° (Epoch: 28 March)

Date Brightness Start Highest point End Pass type
(mag) Time Alt. Az. Time Alt. Az. Time Alt. Az.
28 Mar ? 01:15:11 10° NNW 01:22:32 54° WNW 01:22:32 54° WNW visible
28 Mar ? 03:15:43 10° NW 03:18:26 12° WNW 03:18:26 12° WNW visible
28 Mar ? 22:29:24 10° N 22:36:05 23° ENE 22:37:32 22° ENE visible
29 Mar ? 00:25:24 10° N 00:33:27 76° N 00:33:27 76° N visible
29 Mar ? 02:23:35 10° NNW 02:29:21 23° WNW 02:29:21 23° WNW visible
29 Mar ? 21:41:06 10° NNE 21:45:10 14° NE 21:48:27 11° ENE visible
29 Mar ? 23:35:51 10° N 23:44:22 54° ENE 23:44:22 54° ENE visible
30 Mar ? 01:33:05 10° NNW 01:40:17 39° WNW 01:40:17 39° WNW visible
30 Mar ? 22:46:33 10° N 22:54:19 33° ENE 22:55:17 32° ENE visible
31 Mar ? 00:43:05 10° NNW 00:51:12 66° WNW 00:51:12 66° WNW visible
31 Mar ? 02:42:31 10° NW 02:46:48 15° WNW 02:47:07 15° WNW visible
31 Mar ? 21:57:38 10° N 22:03:44 20° NE 22:06:14 18° ENE visible
31 Mar ? 23:53:22 10° N 00:02:09 76° ENE 00:02:09 76° ENE visible
01 Apr ? 01:51:13 10° NNW 01:58:04 27° WNW 01:58:04 27° WNW visible
01 Apr ? 21:09:59 10° NNE 21:12:40 11° NE 21:15:20 10° ENE visible
01 Apr ? 23:03:53 10° N 23:12:21 47° ENE 23:13:06 46° E visible
02 Apr ? 01:00:54 10° NNW 01:09:01 47° W 01:09:01 47° W visible
02 Apr ? 22:14:41 10° N 22:22:03 28° ENE 22:24:04 26° E visible
03 Apr ? 00:11:00 10° NNW 00:19:50 78° W 00:19:58 78° WSW visible
03 Apr ? 02:09:47 10° NW 02:15:07 18° WNW 02:15:53 18° W visible
03 Apr ? 21:25:57 10° NNE 21:31:19 17° NE 21:35:02 13° E visible
03 Apr ? 23:21:21 10° N 23:30:10 66° ENE 23:30:57 64° ESE visible
04 Apr ? 01:18:55 10° NNW 01:26:21 32° W 01:26:51 32° W visible
04 Apr ? 22:31:57 10° N 22:40:10 40° ENE 22:41:56 37° E visible
05 Apr ? 00:28:46 10° NNW 00:37:16 55° W 00:37:50 54° WSW visible
05 Apr ? 02:29:58 10° NW 02:31:53 11° WNW 02:33:45 10° W visible
05 Apr ? 21:42:51 10° N 21:49:45 24° ENE 21:52:55 20° E visible
05 Apr ? 23:38:56 10° N 23:47:51 89° WSW 23:48:50 74° S visible
06 Apr ? 01:37:16 10° NNW 01:43:23 22° WNW 01:44:45 21° W visible
06 Apr ? 20:54:24 10° NNE 20:58:53 14° NE 21:03:21 10° E visible
06 Apr ? 22:49:22 10° N 22:58:04 57° ENE 22:59:51 50° ESE visible
